Regional Weather Roundup
Issued by NWS Cleveland, OH

Home | Current Version | Previous Version | Graphics & Text | Print | Product List | Glossary On
Versions: 1 2 3 4 5 6 7 8 9 10 11 12 13 14 15 16 17 18 19 20 21 22 23 24 25 26 27 28 29 30 31 32 33 34 35 36 37 38 39 40 41 42 43 44 45 46 47 48 49 50
000
ASUS41 KCLE 041600
RWRCLE
OHIO REGIONAL WEATHER ROUNDUP
NATIONAL WEATHER SERVICE WILMINGTON, OH
1200 PM EDT MON MAY 04 2015

NOTE: "FAIR" INDICATES FEW OR NO CLOUDS BELOW 12,000 FEET WITH NO
SIGNIFICANT WEATHER AND/OR OBSTRUCTIONS TO VISIBILITY.

OHZ001>008-015>018-024>027-034-035-043-044-041700-
   NORTHWEST OHIO

CITY           SKY/WX    TMP DP  RH WIND       PRES   REMARKS
DEFIANCE       LGT RAIN  61  57  87 SW9       30.13R
FINDLAY        CLOUDY    72  54  53 W22G36    30.13R
TOLEDO EXPRESS LGT RAIN  64  55  72 SW21      30.10R
TOLEDO EXEC    CLOUDY    70  52  52 W20G33    30.11R
LIMA           PTSUNNY   72  53  51 W23G29    30.15R
$$

OHZ009>014-019>023-028>033-038-089-041700-
   NORTHEAST OHIO

CITY           SKY/WX    TMP DP  RH WIND       PRES   REMARKS
CLE-HOPKINS    PTSUNNY   77  49  37 SW20G30   30.12S
CLE-LAKEFRONT  PTSUNNY   79  49  34 SW20G29   30.09S
CUY CO. ARPT   PTSUNNY   79  52  38 SW17G23   30.11F
LORAIN-ELYRIA  PTSUNNY   79  48  33 W25       30.11S
ASHTABULA      LGT RAIN  77  47  34 SW22G30   30.12F
AKRON-CANTON   PTSUNNY   77  48  35 SW20G30   30.16S
WOOSTER        NOT AVBL
MANSFIELD      PTSUNNY   76  49  38 SW21G28   30.15R
YOUNGSTOWN     PTSUNNY   76  47  35 SW20G32   30.15S
$$

OHZ042-051>053-060>062-070>072-077>081-041700-
  SOUTHWEST OHIO

CITY           SKY/WX    TMP DP  RH WIND       PRES   REMARKS
CINC-COVINGTON PTSUNNY   77  54  44 SW9G17    30.20S
CINC-LUNKEN    MOSUNNY   77  55  46 SW10      30.20R
HAMILTON       MOSUNNY   77  53  43 SW10      30.20R
DAYTON         NOT AVBL
WRIGHT-PAT AFB MOSUNNY   76  53  44 SW15G23   30.17S
DAYTON GENERAL PTSUNNY   75  52  44 SW12      30.18R
WILMINGTON     SUNNY     76  50  40 W17G24    30.20R
$$

OHZ036-037-039>041-045>050-054>059-063>069-073>076-082>088-041700-
  CENTRAL AND SOUTHEAST OHIO

CITY           SKY/WX    TMP DP  RH WIND       PRES   REMARKS
COLUMBUS       MOSUNNY   77  51  40 SW16G24   30.17S
OSU AIRPORT    MOSUNNY   77  49  37 SW16G26   30.17S
BOLTON FIELD   SUNNY     77  54  44 SW17      30.19R
RICKENBACK AFB NOT AVBL
NEWARK         MOSUNNY   76  52  43 SW16G23   30.18R
MARION         PTSUNNY   77  47  34 SW18G28   30.15R
LANCASTER      MOSUNNY   76  52  43 SW14G24   30.20R
ZANESVILLE     SUNNY     76  49  38 SW16G22   30.18S
NEW PHILLY     FAIR      80  48  32 SW13G20   30.18S
$$



USA.gov is the U.S. government's official web portal to all federal, state and local government web resources and services.